Weatherford, OK

11:10 PM CDT on March 25, 2017 (GMT -0500)
Weatherford

Weather History for KOJA - January, 2014

Change the Weather History Date:

Sunday, January 12, 2014

  Actual Average (KJWG) Record (KJWG)
Temperature  
Mean Temperature 57 °F -  
Max Temperature 73 °F 43 °F 72 °F (2014)
Min Temperature 41 °F 23 °F -6 °F (1963)
Degree Days  
Heating Degree Days 8    
Growing Degree Days 7 (Base 50)    
Moisture  
Dew Point 29 °F    
Average Humidity 39    
Maximum Humidity 53    
Minimum Humidity 22    
Precipitation  
Precipitation 0.00 in - - ()
Sea Level Pressure  
Sea Level Pressure 29.72 in    
Wind  
Wind Speed 15 mph (SW)    
Max Wind Speed 30 mph    
Max Gust Speed 44 mph    
Visibility 10 miles    
Events      
Averages and records for this station are not official NWS values.
T = Trace of Precipitation, MM = Missing Value Source: NWS Daily Summary

Daily Weather History Graph

Daily Weather History Graph

Search for Another Location

Airport or City:

Trip Planner

Search our weather history database for the weather conditions in past years. The results will help you decide how hot, cold, wet, or windy it might be!

Date:

Astronomy

Jan. 12, 2014 Rise Set
Actual Time 7:44 AM CST 5:42 PM CST
Civil Twilight 7:16 AM CST 6:10 PM CST
Nautical Twilight 6:44 AM CST 6:41 PM CST
Astronomical Twilight 6:14 AM CST 7:12 PM CST
Moon 3:10 PM CST (1/12) 4:45 AM CST (1/12)
Length of Visible Light 10h 53m
Length of Day
9h 58m
Waxing Gibbous, 90% of the Moon is Illuminated
Jan 12
Waxing Gibbous
Jan 15
Full
Jan 23
Last Quarter
Jan 30
New
Feb 6
First Quarter

Hourly Weather History & Observations

Time (CST) Temp. Windchill Dew Point Humidity Pressure Visibility Wind Dir Wind Speed Gust Speed Precip Events Conditions
12:15 AM 44.6 °F 38.8 °F 23.0 °F 43% 29.90 in 10.0 mi SSW 11.5 mph 16.1 mph N/A   Clear
12:35 AM 44.6 °F 39.2 °F 23.0 °F 43% 29.90 in 10.0 mi SSW 10.4 mph - N/A   Clear
12:55 AM 44.6 °F 39.2 °F 23.0 °F 43% 29.89 in 10.0 mi SSW 10.4 mph 16.1 mph N/A   Clear
1:15 AM 44.6 °F 40.2 °F 23.0 °F 43% 29.88 in 10.0 mi SSW 8.1 mph - N/A   Clear
1:35 AM 42.8 °F 38.6 °F 23.0 °F 46% 29.87 in 10.0 mi SSW 6.9 mph - N/A   Clear
1:55 AM 41.0 °F 35.8 °F 23.0 °F 49% 29.87 in 10.0 mi SSW 8.1 mph - N/A   Clear
2:15 AM 42.8 °F 35.8 °F 23.0 °F 46% 29.86 in 10.0 mi South 13.8 mph - N/A   Clear
2:35 AM 44.6 °F 38.4 °F 23.0 °F 43% 29.86 in 10.0 mi South 12.7 mph 19.6 mph N/A   Clear
2:55 AM 44.6 °F 37.8 °F 23.0 °F 43% 29.85 in 10.0 mi South 15.0 mph - N/A   Clear
3:15 AM 46.4 °F 40.4 °F 24.8 °F 43% 29.84 in 10.0 mi SSW 13.8 mph - N/A   Clear
3:35 AM 46.4 °F 41.5 °F 24.8 °F 43% 29.83 in 10.0 mi South 10.4 mph - N/A   Clear
3:55 AM 46.4 °F 40.7 °F 24.8 °F 43% 29.82 in 10.0 mi SSW 12.7 mph 19.6 mph N/A   Clear
4:15 AM 44.6 °F 38.1 °F 24.8 °F 46% 29.81 in 10.0 mi SSW 13.8 mph 23.0 mph N/A   Clear
4:35 AM 44.6 °F 37.2 °F 24.8 °F 46% 29.80 in 10.0 mi SSW 17.3 mph 21.9 mph N/A   Clear
4:55 AM 42.8 °F 36.6 °F 26.6 °F 53% 29.79 in 10.0 mi SSW 11.5 mph 17.3 mph N/A   Clear
5:15 AM 44.6 °F 37.2 °F 26.6 °F 49% 29.78 in 10.0 mi SSW 17.3 mph 23.0 mph N/A   Clear
5:35 AM 44.6 °F 37.2 °F 26.6 °F 49% 29.77 in 10.0 mi SSW 17.3 mph 24.2 mph N/A   Clear
5:55 AM 44.6 °F 37.2 °F 26.6 °F 49% 29.77 in 10.0 mi SSW 17.3 mph 24.2 mph N/A   Clear
6:15 AM 44.6 °F 36.9 °F 26.6 °F 49% 29.75 in 10.0 mi SSW 18.4 mph 26.5 mph N/A   Clear
6:35 AM 44.6 °F 36.9 °F 26.6 °F 49% 29.75 in 10.0 mi SSW 18.4 mph 25.3 mph N/A   Clear
6:55 AM 44.6 °F 37.4 °F 26.6 °F 49% 29.74 in 10.0 mi SSW 16.1 mph 25.3 mph N/A   Clear
7:15 AM 44.6 °F 37.8 °F 26.6 °F 49% 29.74 in 10.0 mi SSW 15.0 mph 27.6 mph N/A   Clear
7:35 AM 44.6 °F 38.1 °F 26.6 °F 49% 29.74 in 10.0 mi SSW 13.8 mph 24.2 mph N/A   Clear
7:55 AM 46.4 °F 39.2 °F 28.4 °F 50% 29.73 in 10.0 mi SSW 18.4 mph 25.3 mph N/A   Clear
8:15 AM 46.4 °F 40.1 °F 28.4 °F 50% 29.74 in 10.0 mi SSW 15.0 mph 21.9 mph N/A   Clear
8:35 AM 46.4 °F 39.8 °F 28.4 °F 50% 29.73 in 10.0 mi South 16.1 mph 23.0 mph N/A   Clear
8:55 AM 48.2 °F - 28.4 °F 46% 29.74 in 10.0 mi SSW 15.0 mph 24.2 mph N/A   Clear
9:15 AM 51.8 °F - 28.4 °F 41% 29.75 in 10.0 mi SSW 17.3 mph 26.5 mph N/A   Clear
9:35 AM 51.8 °F - 30.2 °F 44% 29.74 in 10.0 mi SSW 19.6 mph 28.8 mph N/A   Clear
9:55 AM 53.6 °F - 30.2 °F 41% 29.74 in 10.0 mi SSW 25.3 mph 34.5 mph N/A   Clear
10:15 AM 53.6 °F - 30.2 °F 41% 29.74 in 10.0 mi SSW 26.5 mph 34.5 mph N/A   Clear
10:35 AM 55.4 °F - 30.2 °F 38% 29.74 in 10.0 mi SSW 25.3 mph 32.2 mph N/A   Clear
10:55 AM 55.4 °F - 30.2 °F 38% 29.74 in 10.0 mi SSW 24.2 mph 34.5 mph N/A   Clear
11:15 AM 57.2 °F - 30.2 °F 36% 29.73 in 10.0 mi SSW 24.2 mph 34.5 mph N/A   Clear
11:35 AM 59.0 °F - 32.0 °F 36% 29.71 in 10.0 mi SSW 23.0 mph 31.1 mph N/A   Clear
11:55 AM 60.8 °F - 32.0 °F 34% 29.69 in 10.0 mi SSW 19.6 mph 32.2 mph N/A   Clear
12:15 PM 62.6 °F - 32.0 °F 32% 29.66 in 10.0 mi SSW 24.2 mph 32.2 mph N/A   Clear
12:35 PM 62.6 °F - 32.0 °F 32% 29.65 in 10.0 mi SSW 20.7 mph 31.1 mph N/A   Clear
12:55 PM 64.4 °F - 32.0 °F 30% 29.63 in 10.0 mi SSW 20.7 mph 31.1 mph N/A   Clear
1:15 PM 68.0 °F - 32.0 °F 26% 29.61 in 10.0 mi SSW 29.9 mph 41.4 mph N/A   Clear
1:35 PM 68.0 °F - 32.0 °F 26% 29.60 in 10.0 mi SW 24.2 mph 38.0 mph N/A   Clear
1:55 PM 69.8 °F - 32.0 °F 25% 29.59 in 10.0 mi SSW 27.6 mph 39.1 mph N/A   Clear
2:15 PM 69.8 °F - 32.0 °F 25% 29.58 in 10.0 mi SSW 27.6 mph 38.0 mph N/A   Clear
2:35 PM 69.8 °F - 32.0 °F 25% 29.57 in 10.0 mi SSW 26.5 mph 39.1 mph N/A   Clear
2:55 PM 71.6 °F - 32.0 °F 23% 29.58 in 10.0 mi SSW 25.3 mph 35.7 mph N/A   Clear
3:15 PM 71.6 °F - 32.0 °F 23% 29.57 in 10.0 mi SSW 23.0 mph 40.3 mph N/A   Clear
3:35 PM 71.6 °F - 32.0 °F 23% 29.56 in 10.0 mi SSW 20.7 mph 33.4 mph N/A   Clear
3:55 PM 73.4 °F - 32.0 °F 22% 29.56 in 10.0 mi SSW 26.5 mph 35.7 mph N/A   Clear
4:15 PM 73.4 °F - 32.0 °F 22% 29.56 in 10.0 mi SSW 18.4 mph 28.8 mph N/A   Clear
4:35 PM 73.4 °F - 32.0 °F 22% 29.56 in 10.0 mi SSW 16.1 mph 27.6 mph N/A   Clear
4:55 PM 71.6 °F - 32.0 °F 23% 29.57 in 10.0 mi SSW 15.0 mph 21.9 mph N/A   Clear
5:15 PM 69.8 °F - 32.0 °F 25% 29.57 in 10.0 mi SSW 10.4 mph 17.3 mph N/A   Clear
5:35 PM 68.0 °F - 32.0 °F 26% 29.58 in 10.0 mi SSW 6.9 mph - N/A   Clear
5:55 PM 66.2 °F - 32.0 °F 28% 29.58 in 10.0 mi SSW 8.1 mph - N/A   Clear
6:15 PM 62.6 °F - 32.0 °F 32% 29.58 in 10.0 mi SSW 6.9 mph - N/A   Clear
6:35 PM 60.8 °F - 32.0 °F 34% 29.59 in 10.0 mi SW 5.8 mph - N/A   Clear
6:55 PM 60.8 °F - 32.0 °F 34% 29.59 in 10.0 mi SW 9.2 mph - N/A   Clear
7:15 PM 62.6 °F - 32.0 °F 32% 29.59 in 10.0 mi SW 8.1 mph - N/A   Clear
7:35 PM 62.6 °F - 30.2 °F 30% 29.60 in 10.0 mi WSW 11.5 mph - N/A   Clear
7:55 PM 64.4 °F - 30.2 °F 28% 29.62 in 10.0 mi West 11.5 mph - N/A   Clear
8:15 PM 60.8 °F - 30.2 °F 31% 29.66 in 10.0 mi NNW 27.6 mph 43.7 mph N/A   Clear
8:35 PM 55.4 °F - 32.0 °F 41% 29.69 in 10.0 mi NNW 19.6 mph 29.9 mph N/A   Clear
8:55 PM 53.6 °F - 32.0 °F 44% 29.72 in 10.0 mi NNW 17.3 mph - N/A   Clear
9:15 PM 53.6 °F - 32.0 °F 44% 29.74 in 10.0 mi North 19.6 mph 23.0 mph N/A   Clear
9:35 PM 53.6 °F - 32.0 °F 44% 29.76 in 10.0 mi North 16.1 mph 27.6 mph N/A   Clear
9:55 PM 51.8 °F - 32.0 °F 47% 29.78 in 10.0 mi North 16.1 mph 19.6 mph N/A   Clear
10:15 PM 51.8 °F - 32.0 °F 47% 29.79 in 10.0 mi North 13.8 mph 19.6 mph N/A   Clear
10:35 PM 51.8 °F - 32.0 °F 47% 29.80 in 10.0 mi North 12.7 mph 21.9 mph N/A   Clear
10:55 PM 51.8 °F - 32.0 °F 47% 29.81 in 10.0 mi North 15.0 mph 20.7 mph N/A   Clear
11:15 PM 51.8 °F - 30.2 °F 44% 29.82 in 10.0 mi North 13.8 mph 20.7 mph N/A   Clear
11:35 PM 50.0 °F - 30.2 °F 47% 29.84 in 10.0 mi NNW 18.4 mph 25.3 mph N/A   Clear
11:55 PM 48.2 °F - 30.2 °F 50% 29.82 in 10.0 mi North 10.4 mph - N/A   Clear